Location: Chateh
(58.6667°N, 118.6000°W)
Time: 19:55:10
(UTC+00:00)

Gurwin Techsat 1B - Pass Details

Date: 08 December 2023
Orbit: 810 x 813 km, 98.9° (Epoch: 21 February)

Event Time Altitude Azimuth Distance (km) Brightness Sun altitude
Rises 13:46:34 0° 17° (NNE) 3,353 11.9 -19.2°
Reaches altitude 10° 13:49:27 10° 2° (N) 2,418 11.0 -18.9°
Enters shadow 13:52:11 19° 332° (NNW) 1,849 10.1 -18.5°
